Weather History for Huron, SD

Change the Weather History Date:

Monday, September 10, 2012

  Actual Average Record
Temperature  
Mean Temperature 77 °F 64 °F  
Max Temperature 98 °F 77 °F 103 °F (1931)
Min Temperature 56 °F 52 °F 30 °F (1898)
Degree Days  
Heating Degree Days 0 4  
Month to date heating degree days 16 27  
Since 1 July heating degree days 38 56  
Cooling Degree Days 12 3  
Month to date cooling degree days 62 40  
Year to date cooling degree days 1072 709  
Growing Degree Days 26 (Base 50)    
Moisture  
Dew Point 43 °F    
Average Humidity 39    
Maximum Humidity 61    
Minimum Humidity 16    
Precipitation  
Precipitation 0.00 in 0.09 in 1.36 in (1933)
Month to date precipitation 0.30 0.87  
Year to date precipitation 16.97 18.13  
Snow  
Snow 0.00 in 0.00 in 0.00 in ()
Month to date snowfall 0.0 0.0  
Since 1 July snowfall 0.0 0.0  
Since 1 September snowfall 0.0 0.0  
Snow Depth 0.00 in    
Sea Level Pressure  
Sea Level Pressure 29.74 in    
Wind  
Wind Speed 15 mph (South)    
Max Wind Speed 29 mph    
Max Gust Speed 40 mph    
Visibility 10 miles    
Events      
T = Trace of Precipitation, MM = Missing Value Source: NWS Daily Summary

Daily Weather History Graph

Daily Weather History Graph

Search for Another Location

Airport:

Trip Planner

Search our weather history database for the weather conditions in past years. The results will help you decide how hot, cold, wet, or windy it might be!

Date:

Astronomy

Sep. 10, 2012 Rise Set
Actual Time 7:06 AM CDT 7:51 PM CDT
Civil Twilight 6:37 AM CDT 8:21 PM CDT
Nautical Twilight 6:02 AM CDT 8:55 PM CDT
Astronomical Twilight 5:25 AM CDT 9:32 PM CDT
Moon 1:19 AM CDT (9/10) 4:31 PM CDT (9/10)
Length of Visible Light 13h 43m
Length of Day
12h 45m
Waning Crescent, 30% of the Moon is Illuminated
Sep 10
Waning Crescent
Sep 15
New
Sep 22
First Quarter
Sep 29
Full
Oct 8
Last Quarter

Hourly Weather History & Observations

Time (CDT) Temp. Dew Point Humidity Pressure Visibility Wind Dir Wind Speed Gust Speed Precip Events Conditions
12:55 AM 59.0 °F 39.9 °F 49% 29.95 in 10.0 mi SSE 12.7 mph 19.6 mph N/A   Clear
1:55 AM 57.9 °F 41.0 °F 53% 29.94 in 10.0 mi South 13.8 mph 20.7 mph N/A   Clear
3:55 AM 57.0 °F 42.1 °F 57% 29.90 in 10.0 mi SSE 11.5 mph 21.9 mph N/A   Clear
4:55 AM 55.9 °F 42.1 °F 60% 29.87 in 10.0 mi SSE 13.8 mph 20.7 mph N/A   Clear
5:55 AM 55.9 °F 42.1 °F 60% 29.86 in 10.0 mi SSE 12.7 mph 23.0 mph N/A   Clear
6:55 AM 57.0 °F 41.0 °F 55% 29.84 in 10.0 mi SSE 15.0 mph 23.0 mph N/A   Clear
7:55 AM 57.9 °F 42.1 °F 56% 29.82 in 10.0 mi SSE 15.0 mph 26.5 mph N/A   Clear
8:55 AM 62.1 °F 43.0 °F 50% 29.80 in 10.0 mi South 17.3 mph 25.3 mph N/A   Clear
10:55 AM 75.9 °F 44.1 °F 32% 29.75 in 10.0 mi South 15.0 mph 31.1 mph N/A   Clear
11:55 AM 81.0 °F 45.0 °F 28% 29.72 in 10.0 mi South 19.6 mph 33.4 mph N/A   Clear
12:55 PM 87.1 °F 44.1 °F 22% 29.70 in 10.0 mi South 15.0 mph 33.4 mph N/A   Clear
1:55 PM 89.1 °F 43.0 °F 20% 29.68 in 10.0 mi South 26.5 mph 35.7 mph N/A   Clear
2:55 PM 93.0 °F 43.0 °F 18% 29.64 in 10.0 mi South 17.3 mph 32.2 mph N/A   Clear
3:55 PM 96.1 °F 42.1 °F 15% 29.62 in 10.0 mi South 18.4 mph 29.9 mph N/A   Clear
4:55 PM 97.0 °F 42.1 °F 15% 29.61 in 10.0 mi South 16.1 mph 27.6 mph N/A   Clear
5:55 PM 96.1 °F 42.1 °F 15% 29.60 in 10.0 mi South 16.1 mph 26.5 mph N/A   Clear
6:55 PM 93.0 °F 42.1 °F 17% 29.60 in 10.0 mi South 11.5 mph 19.6 mph N/A   Clear
7:55 PM 87.1 °F 43.0 °F 21% 29.60 in 10.0 mi South 8.1 mph - N/A   Clear
9:55 PM 79.0 °F 45.0 °F 30% 29.62 in 10.0 mi SSE 9.2 mph 18.4 mph N/A   Clear
10:55 PM 77.0 °F 44.1 °F 31% 29.63 in 10.0 mi SSE 13.8 mph 20.7 mph N/A   Clear
11:55 PM 73.9 °F 44.1 °F 34% 29.62 in 10.0 mi SSE 10.4 mph - N/A   Clear